Weather History for KBIV - November, 2012

Change the Weather History Date:

Tuesday, November 13, 2012

  Actual Average Record
Temperature  
Mean Temperature 34 °F 43 °F  
Max Temperature 40 °F 50 °F 67 °F (2011)
Min Temperature 27 °F 36 °F 16 °F (1986)
Degree Days  
Heating Degree Days 31 22  
Month to date heating degree days 286 259  
Since 1 July heating degree days 834 784  
Cooling Degree Days 0 0  
Month to date cooling degree days 0 0  
Year to date cooling degree days 1067 693  
Moisture  
Dew Point 20 °F    
Average Humidity 66    
Maximum Humidity 81    
Minimum Humidity 51    
Precipitation  
Precipitation T in 0.13 in 0.70 in (1993)
Month to date precipitation 0.47 1.77  
Year to date precipitation 30.56 32.47  
Sea Level Pressure  
Sea Level Pressure 30.45 in    
Wind  
Wind Speed 7 mph (West)    
Max Wind Speed 6 mph    
Max Gust Speed 7 mph    
Visibility 10 miles    
Events      
T = Trace of Precipitation, MM = Missing Value Source: NWS Daily Summary

Daily Weather History Graph

Daily Weather History Graph

Search for Another Location

Airport or City:

Trip Planner

Search our weather history database for the weather conditions in past years. The results will help you decide how hot, cold, wet, or windy it might be!

Date:

Astronomy

Nov. 13, 2012 Rise Set
Actual Time 7:34 AM EST 5:22 PM EST
Civil Twilight 7:03 AM EST 5:53 PM EST
Nautical Twilight 6:29 AM EST 6:27 PM EST
Astronomical Twilight 5:56 AM EST 7:00 PM EST
Moon 7:11 AM EST (11/13) 5:14 PM EST (11/13)
Length of Visible Light 10h 49m
Length of Day
9h 48m
Waning Crescent, 0% of the Moon is Illuminated
Nov 13
Waning Crescent
Nov 13
New
Nov 20
First Quarter
Nov 28
Full
Dec 6
Last Quarter

Hourly Weather History & Observations

Time (EST) Temp. Windchill Dew Point Humidity Pressure Visibility Wind Dir Wind Speed Gust Speed Precip Events Conditions
12:53 AM 34.0 °F 26.6 °F 19.9 °F 56% 30.30 in 10.0 mi WNW 9.2 mph 17.3 mph N/A   Overcast
1:53 AM 34.0 °F 26.0 °F 19.0 °F 54% 30.32 in 10.0 mi West 10.4 mph 18.4 mph 0.00 in   Unknown
2:53 AM 33.1 °F 24.9 °F 18.0 °F 54% 30.34 in 10.0 mi WNW 10.4 mph - N/A   Overcast
3:53 AM 33.1 °F 26.9 °F 19.0 °F 56% 30.35 in 10.0 mi WNW 6.9 mph - N/A   Overcast
4:53 AM 33.1 °F 25.5 °F 17.1 °F 52% 30.36 in 10.0 mi West 9.2 mph - N/A   Overcast
5:53 AM 33.1 °F 27.7 °F 18.0 °F 54% 30.38 in 10.0 mi West 5.8 mph - N/A   Overcast
6:53 AM 33.1 °F 27.7 °F 18.0 °F 54% 30.41 in 10.0 mi Variable 5.8 mph - N/A   Overcast
7:53 AM 33.1 °F 28.7 °F 18.0 °F 54% 30.43 in 10.0 mi NW 4.6 mph - N/A   Overcast
8:53 AM 34.0 °F - 19.0 °F 54% 30.45 in 10.0 mi Calm Calm - N/A   Overcast
9:53 AM 35.1 °F 30.1 °F 19.9 °F 54% 30.48 in 10.0 mi WNW 5.8 mph - N/A   Overcast
10:53 AM 37.9 °F 32.1 °F 21.9 °F 53% 30.49 in 10.0 mi WNW 8.1 mph - N/A   Overcast
11:53 AM 37.9 °F 30.9 °F 21.9 °F 53% 30.49 in 10.0 mi WSW 10.4 mph - N/A   Overcast
12:53 PM 37.9 °F 32.7 °F 21.0 °F 51% 30.49 in 10.0 mi West 6.9 mph - N/A   Mostly Cloudy
1:53 PM 36.0 °F 31.1 °F 21.0 °F 55% 30.49 in 10.0 mi West 5.8 mph - N/A   Partly Cloudy
2:53 PM 37.9 °F 32.7 °F 21.0 °F 51% 30.48 in 10.0 mi West 6.9 mph - N/A   Scattered Clouds
3:53 PM 37.0 °F 34.5 °F 21.0 °F 52% 30.48 in 10.0 mi Variable 3.5 mph - N/A   Clear
4:53 PM 37.0 °F - 21.0 °F 52% 30.49 in 10.0 mi Calm Calm - N/A   Clear
5:53 PM 32.0 °F 28.7 °F 23.0 °F 69% 30.50 in 10.0 mi WSW 3.5 mph - N/A   Clear
6:53 PM 30.9 °F - 23.0 °F 72% 30.51 in 10.0 mi Calm Calm - N/A   Clear
7:53 PM 28.0 °F 24.2 °F 21.9 °F 78% 30.53 in 10.0 mi SSE 3.5 mph - N/A   Clear
8:53 PM 28.9 °F 25.2 °F 21.9 °F 75% 30.53 in 10.0 mi ESE 3.5 mph - N/A   Clear
9:53 PM 28.9 °F - 21.9 °F 75% 30.53 in 10.0 mi Calm Calm - N/A   Clear
10:53 PM 27.0 °F 21.6 °F 21.0 °F 78% 30.53 in 10.0 mi SE 4.6 mph - N/A   Clear
11:53 PM 28.0 °F 22.8 °F 21.9 °F 78% 30.54 in 10.0 mi SSE 4.6 mph - N/A   Clear